AWE410 KBUR-KPDX

Flight info

Callsign AWE410
Flight time 1h 56m
Altitude 36000
Route OROSZ2 CSTRO NURAY LMT MOXEE TMBRS4
Aircraft A320/M-SDE3FGHIRWY/LB1

Departure

Time 2026-05-07 16:38
Airport Hollywood Burbank/Bob Hope Airport (KBUR)

Arrival

Time 2026-05-07 18:34
Airport Portland International Airport (KPDX)
Time Latitude Longitude Altitude Speed Heading
2026-05-07 16:17 34.19607 -118.35486 690 ft 0 kts 126°
2026-05-07 16:29 34.19609 -118.35489 694 ft 3 kts 124°
2026-05-07 16:29 34.19619 -118.35516 685 ft 4 kts 75°
2026-05-07 16:30 34.19604 -118.35534 686 ft 4 kts
2026-05-07 16:30 34.19589 -118.35533 689 ft 1 kts 347°
2026-05-07 16:30 34.19588 -118.35532 689 ft 1 kts 347°
2026-05-07 16:33 34.19602 -118.35536 687 ft 9 kts 347°
2026-05-07 16:34 34.19710 -118.35560 692 ft 19 kts
2026-05-07 16:34 34.19828 -118.35526 694 ft 17 kts 359°
2026-05-07 16:34 34.19964 -118.35562 698 ft 24 kts 347°
2026-05-07 16:34 34.20153 -118.35614 714 ft 27 kts 347°
2026-05-07 16:35 34.20330 -118.35663 718 ft 25 kts 347°
2026-05-07 16:35 34.20492 -118.35708 724 ft 22 kts 347°
2026-05-07 16:35 34.20642 -118.35748 731 ft 21 kts 347°
2026-05-07 16:35 34.20780 -118.35785 740 ft 20 kts 347°
2026-05-07 16:36 34.20897 -118.35818 750 ft 19 kts 347°
2026-05-07 16:36 34.21035 -118.35856 757 ft 19 kts 347°
2026-05-07 16:36 34.21148 -118.35900 770 ft 17 kts 327°
2026-05-07 16:36 34.21203 -118.36010 773 ft 14 kts 242°
2026-05-07 16:37 34.21107 -118.36014 770 ft 16 kts 168°
2026-05-07 16:37 34.20893 -118.35953 752 ft 65 kts 167°
2026-05-07 16:37 34.20207 -118.35762 712 ft 133 kts 167°
2026-05-07 16:37 34.19198 -118.35477 998 ft 156 kts 166°
2026-05-07 16:38 34.18095 -118.35484 1593 ft 165 kts 198°
2026-05-07 16:38 34.17112 -118.36240 2162 ft 174 kts 226°
2026-05-07 16:38 34.16246 -118.37355 2617 ft 194 kts 225°
2026-05-07 16:38 34.15214 -118.38534 2925 ft 211 kts 224°
2026-05-07 16:39 34.14084 -118.39828 3166 ft 237 kts 225°
2026-05-07 16:39 34.13138 -118.40947 3544 ft 251 kts 226°
2026-05-07 16:39 34.11745 -118.42941 4453 ft 254 kts 240°
2026-05-07 16:39 34.11113 -118.44967 5021 ft 266 kts 266°
2026-05-07 16:40 34.11349 -118.47182 5657 ft 271 kts 294°
2026-05-07 16:40 34.11970 -118.48482 6147 ft 272 kts 311°
2026-05-07 16:40 34.13451 -118.49886 6925 ft 274 kts 333°
2026-05-07 16:40 34.15163 -118.50939 7735 ft 277 kts 334°
2026-05-07 16:41 34.16897 -118.51988 8506 ft 280 kts 335°
2026-05-07 16:41 34.18651 -118.53048 9272 ft 283 kts 335°
2026-05-07 16:41 34.20443 -118.54137 10030 ft 286 kts 335°
2026-05-07 16:41 34.22266 -118.55245 10380 ft 304 kts 335°
2026-05-07 16:42 34.24227 -118.56436 10530 ft 327 kts 335°
2026-05-07 16:42 34.26302 -118.57705 10930 ft 339 kts 335°
2026-05-07 16:42 34.28417 -118.59006 11556 ft 343 kts 335°
2026-05-07 16:42 34.30555 -118.60319 12212 ft 346 kts 335°
2026-05-07 16:43 34.32711 -118.61645 12925 ft 349 kts 335°
2026-05-07 16:43 34.34882 -118.62984 13611 ft 352 kts 335°
2026-05-07 16:43 34.37069 -118.64332 14241 ft 354 kts 335°
2026-05-07 16:43 34.39289 -118.65645 14838 ft 356 kts 337°
2026-05-07 16:44 34.41556 -118.66893 15425 ft 358 kts 341°
2026-05-07 16:44 34.43943 -118.67721 15991 ft 358 kts 353°
2026-05-07 16:44 34.46412 -118.68150 16582 ft 359 kts 354°
2026-05-07 16:44 34.48892 -118.68598 17171 ft 361 kts 353°
2026-05-07 16:45 34.51382 -118.69075 17749 ft 364 kts 353°
2026-05-07 16:45 34.53892 -118.69570 18340 ft 366 kts 353°
2026-05-07 16:45 34.56409 -118.70069 18831 ft 368 kts 353°
2026-05-07 16:45 34.58950 -118.70575 19328 ft 371 kts 353°
2026-05-07 16:46 34.61501 -118.71080 19811 ft 373 kts 353°
2026-05-07 16:46 34.64078 -118.71590 20292 ft 376 kts 353°
2026-05-07 16:46 34.66672 -118.72100 20799 ft 379 kts 353°
2026-05-07 16:46 34.69281 -118.72614 21298 ft 382 kts 353°
2026-05-07 16:47 34.71875 -118.73384 21755 ft 387 kts 343°
2026-05-07 16:47 34.74342 -118.74749 22224 ft 393 kts 334°
2026-05-07 16:47 34.76737 -118.76395 22681 ft 396 kts 334°
2026-05-07 16:47 34.79143 -118.78052 23143 ft 399 kts 334°
2026-05-07 16:48 34.81566 -118.79721 23569 ft 401 kts 334°
2026-05-07 16:48 34.84004 -118.81397 23949 ft 403 kts 334°
2026-05-07 16:48 34.86487 -118.83105 24309 ft 405 kts 334°
2026-05-07 16:48 34.88944 -118.84795 24667 ft 407 kts 334°
2026-05-07 16:49 34.91421 -118.86498 25005 ft 409 kts 334°
2026-05-07 16:49 34.93908 -118.88206 25344 ft 411 kts 334°
2026-05-07 16:49 34.96406 -118.89926 25674 ft 413 kts 334°
2026-05-07 16:49 34.98913 -118.91655 25992 ft 415 kts 334°
2026-05-07 16:50 35.01431 -118.93395 26304 ft 417 kts 334°
2026-05-07 16:50 35.03961 -118.95144 26631 ft 419 kts 334°
2026-05-07 16:50 35.06506 -118.96901 26935 ft 421 kts 334°
2026-05-07 16:50 35.09056 -118.98666 27232 ft 423 kts 334°
2026-05-07 16:51 35.11618 -119.00445 27528 ft 425 kts 334°
2026-05-07 16:51 35.14193 -119.02233 27820 ft 426 kts 334°
2026-05-07 16:51 35.16778 -119.04021 28105 ft 428 kts 335°
2026-05-07 16:51 35.19378 -119.05820 28392 ft 430 kts 335°
2026-05-07 16:52 35.21984 -119.07626 28667 ft 431 kts 335°
2026-05-07 16:52 35.24598 -119.09442 28912 ft 433 kts 335°
2026-05-07 16:52 35.27223 -119.11268 29176 ft 435 kts 335°
2026-05-07 16:52 35.29854 -119.13100 29421 ft 436 kts 335°
2026-05-07 16:53 35.32501 -119.14942 29661 ft 438 kts 335°
2026-05-07 16:53 35.35154 -119.16791 29893 ft 439 kts 335°
2026-05-07 16:53 35.37814 -119.18644 30118 ft 441 kts 335°
2026-05-07 16:53 35.40484 -119.20506 30309 ft 442 kts 335°
2026-05-07 16:54 35.43158 -119.22370 30543 ft 442 kts 335°
2026-05-07 16:54 35.45918 -119.23959 30809 ft 436 kts 344°
2026-05-07 16:54 35.48821 -119.25152 31077 ft 433 kts 346°
2026-05-07 16:54 35.51684 -119.26298 31337 ft 432 kts 346°
2026-05-07 16:55 35.54541 -119.27437 31599 ft 432 kts 346°
2026-05-07 16:55 35.57394 -119.28574 31873 ft 431 kts 346°
2026-05-07 16:55 35.60241 -119.29709 32143 ft 430 kts 346°
2026-05-07 16:55 35.63086 -119.30848 32407 ft 429 kts 346°
2026-05-07 16:56 35.65917 -119.31987 32674 ft 428 kts 346°
2026-05-07 16:56 35.68749 -119.33127 32944 ft 427 kts 346°
2026-05-07 16:56 35.74389 -119.35405 33452 ft 426 kts 346°
2026-05-07 16:57 35.77204 -119.36541 33707 ft 425 kts 346°
2026-05-07 16:57 35.80009 -119.37673 33968 ft 424 kts 346°
2026-05-07 16:57 35.82813 -119.38806 34215 ft 423 kts 346°
2026-05-07 16:57 35.85606 -119.39936 34430 ft 423 kts 346°
2026-05-07 16:58 35.88401 -119.41067 34638 ft 422 kts 346°
2026-05-07 16:58 35.91186 -119.42193 34852 ft 421 kts 346°
2026-05-07 16:58 35.93965 -119.43316 35058 ft 420 kts 346°
2026-05-07 16:58 35.96745 -119.44441 35252 ft 420 kts 346°
2026-05-07 16:59 35.99517 -119.45566 35443 ft 419 kts 346°
2026-05-07 16:59 36.02284 -119.46690 35622 ft 419 kts 346°
2026-05-07 16:59 36.05046 -119.47813 35799 ft 418 kts 346°
2026-05-07 16:59 36.07810 -119.48940 35966 ft 417 kts 346°
2026-05-07 17:00 36.10564 -119.50063 36118 ft 417 kts 346°
2026-05-07 17:00 36.13318 -119.51185 36143 ft 417 kts 346°
2026-05-07 17:00 36.18820 -119.53425 36141 ft 416 kts 346°
2026-05-07 17:01 36.24328 -119.55669 36148 ft 416 kts 346°
2026-05-07 17:01 36.29829 -119.57915 36145 ft 416 kts 346°
2026-05-07 17:02 36.35332 -119.60170 36148 ft 417 kts 346°
2026-05-07 17:02 36.40871 -119.62448 36147 ft 417 kts 346°
2026-05-07 17:03 36.46379 -119.64708 36151 ft 417 kts 346°
2026-05-07 17:03 36.49085 -119.65825 36149 ft 417 kts 346°
2026-05-07 17:04 36.54589 -119.68095 36150 ft 417 kts 346°
2026-05-07 17:04 36.60096 -119.70346 36157 ft 416 kts 347°
2026-05-07 17:05 36.65648 -119.72335 36161 ft 415 kts 349°
2026-05-07 17:05 36.71234 -119.74125 36160 ft 414 kts 349°
2026-05-07 17:06 36.76815 -119.75937 36143 ft 415 kts 349°
2026-05-07 17:06 36.82391 -119.77812 36141 ft 415 kts 348°
2026-05-07 17:07 36.87965 -119.79720 36136 ft 415 kts 348°
2026-05-07 17:07 36.93541 -119.81620 36134 ft 415 kts 348°
2026-05-07 17:08 36.99123 -119.83513 36137 ft 415 kts 348°
2026-05-07 17:08 37.04702 -119.85404 36139 ft 416 kts 348°
2026-05-07 17:09 37.10286 -119.87309 36137 ft 416 kts 348°
2026-05-07 17:09 37.15871 -119.89212 36143 ft 416 kts 348°
2026-05-07 17:10 37.21460 -119.91111 36141 ft 416 kts 348°
2026-05-07 17:10 37.27051 -119.93020 36142 ft 416 kts 348°
2026-05-07 17:11 37.32641 -119.94944 36138 ft 417 kts 348°
2026-05-07 17:11 37.38240 -119.96873 36145 ft 417 kts 348°
2026-05-07 17:12 37.42929 -119.98486 36148 ft 417 kts 348°
2026-05-07 17:12 37.48531 -120.00413 36150 ft 417 kts 348°
2026-05-07 17:13 37.54137 -120.02332 36152 ft 418 kts 348°
2026-05-07 17:13 37.59756 -120.04269 36161 ft 419 kts 347°
2026-05-07 17:14 37.65375 -120.06220 36161 ft 419 kts 347°
2026-05-07 17:14 37.70989 -120.08172 36159 ft 419 kts 347°
2026-05-07 17:15 37.76610 -120.10121 36156 ft 419 kts 347°
2026-05-07 17:15 37.82224 -120.12067 36157 ft 418 kts 347°
2026-05-07 17:16 37.87838 -120.14016 36161 ft 419 kts 347°
2026-05-07 17:16 37.93461 -120.15978 36161 ft 419 kts 347°
2026-05-07 17:17 37.99083 -120.17938 36156 ft 419 kts 347°
2026-05-07 17:17 38.04704 -120.19897 36163 ft 419 kts 347°
2026-05-07 17:18 38.10362 -120.21889 36162 ft 419 kts 347°
2026-05-07 17:18 38.15983 -120.23866 36162 ft 419 kts 347°
2026-05-07 17:19 38.21611 -120.25833 36161 ft 420 kts 347°
2026-05-07 17:19 38.27245 -120.27808 36165 ft 420 kts 347°
2026-05-07 17:20 38.32876 -120.29800 36165 ft 420 kts 347°
2026-05-07 17:20 38.38511 -120.31793 36168 ft 421 kts 347°
2026-05-07 17:21 38.44150 -120.33790 36168 ft 421 kts 346°
2026-05-07 17:21 38.49795 -120.35790 36173 ft 421 kts 346°
2026-05-07 17:22 38.55450 -120.37791 36171 ft 422 kts 346°
2026-05-07 17:22 38.61106 -120.39800 36181 ft 422 kts 346°
2026-05-07 17:23 38.66769 -120.41817 36176 ft 423 kts 346°
2026-05-07 17:23 38.72435 -120.43839 36177 ft 423 kts 346°
2026-05-07 17:24 38.78105 -120.45856 36177 ft 423 kts 346°
2026-05-07 17:24 38.83779 -120.47883 36142 ft 424 kts 345°
2026-05-07 17:25 38.89520 -120.49942 36169 ft 433 kts 344°
2026-05-07 17:25 38.95354 -120.52042 36157 ft 437 kts 344°
2026-05-07 17:26 39.01244 -120.54161 36172 ft 437 kts 344°
2026-05-07 17:26 39.07104 -120.56268 36205 ft 437 kts 344°
2026-05-07 17:27 39.12958 -120.58367 36242 ft 437 kts 344°
2026-05-07 17:27 39.18813 -120.60487 36280 ft 437 kts 344°
2026-05-07 17:28 39.24663 -120.62603 36302 ft 437 kts 344°
2026-05-07 17:28 39.30514 -120.64729 36307 ft 436 kts 344°
2026-05-07 17:29 39.36356 -120.66845 36306 ft 436 kts 344°
2026-05-07 17:29 39.42189 -120.68969 36266 ft 435 kts 344°
2026-05-07 17:30 39.48009 -120.71099 36223 ft 434 kts 344°
2026-05-07 17:30 39.53823 -120.73223 36176 ft 434 kts 344°
2026-05-07 17:31 39.59637 -120.75347 36129 ft 434 kts 344°
2026-05-07 17:31 39.65450 -120.77480 36098 ft 434 kts 344°
2026-05-07 17:32 39.71264 -120.79611 36098 ft 434 kts 344°
2026-05-07 17:32 39.76135 -120.81403 36096 ft 434 kts 344°
2026-05-07 17:33 39.82885 -120.83895 36099 ft 434 kts 344°
2026-05-07 17:33 39.88697 -120.86037 36102 ft 434 kts 344°
2026-05-07 17:34 39.94509 -120.88173 36102 ft 434 kts 344°
2026-05-07 17:34 40.00331 -120.90325 36103 ft 435 kts 344°
2026-05-07 17:35 40.06191 -120.92505 36098 ft 435 kts 343°
2026-05-07 17:35 40.12017 -120.94682 36103 ft 436 kts 343°
2026-05-07 17:36 40.17849 -120.96858 36111 ft 436 kts 343°
2026-05-07 17:36 40.23685 -120.99024 36120 ft 436 kts 343°
2026-05-07 17:37 40.29517 -121.01188 36125 ft 436 kts 343°
2026-05-07 17:37 40.35345 -121.03367 36134 ft 435 kts 343°
2026-05-07 17:38 40.41158 -121.05557 36130 ft 434 kts 343°
2026-05-07 17:38 40.46962 -121.07754 36133 ft 434 kts 343°
2026-05-07 17:39 40.52760 -121.09935 36129 ft 433 kts 343°
2026-05-07 17:39 40.58560 -121.12110 36128 ft 433 kts 343°
2026-05-07 17:40 40.64359 -121.14295 36122 ft 433 kts 343°
2026-05-07 17:40 40.70154 -121.16485 36118 ft 434 kts 343°
2026-05-07 17:41 40.75951 -121.18686 36115 ft 434 kts 343°
2026-05-07 17:41 40.81751 -121.20888 36111 ft 434 kts 343°
2026-05-07 17:42 40.87556 -121.23093 36106 ft 434 kts 343°
2026-05-07 17:42 40.93362 -121.25316 36110 ft 434 kts 343°
2026-05-07 17:43 40.99170 -121.27536 36109 ft 435 kts 343°
2026-05-07 17:43 41.05022 -121.29767 36112 ft 435 kts 343°
2026-05-07 17:44 41.10834 -121.31992 36115 ft 435 kts 343°
2026-05-07 17:44 41.16642 -121.34220 36117 ft 435 kts 343°
2026-05-07 17:45 41.21472 -121.36074 36123 ft 435 kts 343°
2026-05-07 17:45 41.27283 -121.38316 36128 ft 434 kts 343°
2026-05-07 17:46 41.33083 -121.40556 36124 ft 434 kts 343°
2026-05-07 17:46 41.38877 -121.42797 36129 ft 434 kts 343°
2026-05-07 17:47 41.44671 -121.45043 36126 ft 433 kts 343°
2026-05-07 17:47 41.50461 -121.47292 36124 ft 433 kts 343°
2026-05-07 17:48 41.56246 -121.49536 36119 ft 433 kts 343°
2026-05-07 17:48 41.62025 -121.51786 36117 ft 432 kts 342°
2026-05-07 17:49 41.67803 -121.54042 36114 ft 432 kts 342°
2026-05-07 17:49 41.73575 -121.56301 36113 ft 432 kts 342°
2026-05-07 17:50 41.79382 -121.58578 36107 ft 432 kts 342°
2026-05-07 17:50 41.85143 -121.60839 36122 ft 432 kts 342°
2026-05-07 17:51 41.90913 -121.63103 36145 ft 432 kts 342°
2026-05-07 17:51 41.96679 -121.65375 36171 ft 432 kts 342°
2026-05-07 17:52 42.02439 -121.67661 36196 ft 432 kts 342°
2026-05-07 17:52 42.07541 -121.69678 36214 ft 431 kts 342°
2026-05-07 17:53 42.11481 -121.71231 36205 ft 431 kts 342°
2026-05-07 17:54 42.17213 -121.73570 36203 ft 430 kts 340°
2026-05-07 17:54 42.22839 -121.76313 36211 ft 430 kts 338°
2026-05-07 17:55 42.28416 -121.79223 36184 ft 430 kts 338°
2026-05-07 17:55 42.34011 -121.82080 36164 ft 430 kts 338°
2026-05-07 17:56 42.39624 -121.84881 36142 ft 430 kts 338°
2026-05-07 17:56 42.45241 -121.87677 36120 ft 430 kts 338°
2026-05-07 17:57 42.49946 -121.90030 36102 ft 430 kts 338°
2026-05-07 17:57 42.56477 -121.93309 36096 ft 431 kts 338°
2026-05-07 17:58 42.62088 -121.96142 36109 ft 430 kts 338°
2026-05-07 17:58 42.67739 -121.98991 36110 ft 430 kts 338°
2026-05-07 17:59 42.73346 -122.01826 36107 ft 430 kts 338°
2026-05-07 17:59 42.78953 -122.04669 36107 ft 430 kts 338°
2026-05-07 18:00 42.84558 -122.07511 36108 ft 429 kts 338°
2026-05-07 18:00 42.90154 -122.10356 36115 ft 430 kts 337°
2026-05-07 18:01 42.95749 -122.13210 36116 ft 429 kts 337°
2026-05-07 18:01 43.01340 -122.16065 36116 ft 429 kts 337°
2026-05-07 18:02 43.09716 -122.20351 36119 ft 428 kts 337°
2026-05-07 18:03 43.15294 -122.23215 36118 ft 428 kts 337°
2026-05-07 18:03 43.20866 -122.26075 36117 ft 428 kts 337°
2026-05-07 18:04 43.26439 -122.28940 36115 ft 428 kts 337°
2026-05-07 18:04 43.32011 -122.31817 36115 ft 428 kts 337°
2026-05-07 18:05 43.37584 -122.34698 36121 ft 428 kts 337°
2026-05-07 18:05 43.43150 -122.37587 36131 ft 427 kts 337°
2026-05-07 18:06 43.48713 -122.40476 36136 ft 427 kts 336°
2026-05-07 18:06 43.54275 -122.43369 36137 ft 427 kts 336°
2026-05-07 18:07 43.59867 -122.46287 36140 ft 427 kts 336°
2026-05-07 18:07 43.65419 -122.49181 36142 ft 426 kts 336°
2026-05-07 18:08 43.70966 -122.52080 36146 ft 426 kts 336°
2026-05-07 18:08 43.76566 -122.55026 35847 ft 438 kts 336°
2026-05-07 18:08 43.79429 -122.56531 35599 ft 441 kts 336°
2026-05-07 18:09 43.82298 -122.58034 35359 ft 441 kts 336°
2026-05-07 18:09 43.85170 -122.59535 35117 ft 440 kts 336°
2026-05-07 18:09 43.88028 -122.61038 34695 ft 440 kts 336°
2026-05-07 18:09 43.90904 -122.62559 33831 ft 442 kts 336°
2026-05-07 18:10 43.93759 -122.64071 33248 ft 437 kts 336°
2026-05-07 18:10 43.96582 -122.65563 32697 ft 432 kts 336°
2026-05-07 18:10 43.99379 -122.67040 32147 ft 428 kts 336°
2026-05-07 18:10 44.02144 -122.68502 31601 ft 424 kts 336°
2026-05-07 18:11 44.04886 -122.69953 31070 ft 420 kts 336°
2026-05-07 18:11 44.06688 -122.70911 30721 ft 418 kts 336°
2026-05-07 18:11 44.10300 -122.72834 29987 ft 414 kts 336°
2026-05-07 18:11 44.13001 -122.74197 29418 ft 412 kts 341°
2026-05-07 18:12 44.15811 -122.74948 28882 ft 412 kts 352°
2026-05-07 18:12 44.18676 -122.74958 28330 ft 413 kts
2026-05-07 18:12 44.21532 -122.74671 27791 ft 410 kts
2026-05-07 18:12 44.24363 -122.74389 27266 ft 407 kts
2026-05-07 18:13 44.27176 -122.74112 26747 ft 404 kts
2026-05-07 18:13 44.29965 -122.73839 26248 ft 401 kts
2026-05-07 18:13 44.32741 -122.73567 25756 ft 398 kts
2026-05-07 18:13 44.35493 -122.73293 25271 ft 396 kts
2026-05-07 18:14 44.38234 -122.73019 24796 ft 393 kts
2026-05-07 18:14 44.40959 -122.72745 24313 ft 391 kts
2026-05-07 18:14 44.43666 -122.72479 23845 ft 390 kts
2026-05-07 18:14 44.46369 -122.72214 23295 ft 388 kts
2026-05-07 18:15 44.49052 -122.71952 22818 ft 385 kts
2026-05-07 18:15 44.51718 -122.71689 22325 ft 383 kts
2026-05-07 18:15 44.54401 -122.71420 21837 ft 381 kts
2026-05-07 18:15 44.57036 -122.71153 21356 ft 379 kts
2026-05-07 18:16 44.59658 -122.70890 20936 ft 375 kts
2026-05-07 18:16 44.62227 -122.70633 20676 ft 367 kts
2026-05-07 18:16 44.64754 -122.70377 19971 ft 362 kts
2026-05-07 18:16 44.67231 -122.70127 19462 ft 351 kts
2026-05-07 18:17 44.69620 -122.69884 19025 ft 339 kts
2026-05-07 18:17 44.71937 -122.69650 18598 ft 329 kts
2026-05-07 18:17 44.74201 -122.69425 18033 ft 326 kts
2026-05-07 18:17 44.76451 -122.69201 17521 ft 322 kts
2026-05-07 18:18 44.77929 -122.69052 17248 ft 321 kts
2026-05-07 18:18 44.80155 -122.68826 16834 ft 321 kts
2026-05-07 18:18 44.82390 -122.68600 16433 ft 321 kts
2026-05-07 18:18 44.84617 -122.68381 16031 ft 321 kts
2026-05-07 18:19 44.86850 -122.68160 15629 ft 321 kts
2026-05-07 18:19 44.89078 -122.67936 15225 ft 322 kts
2026-05-07 18:19 44.91316 -122.67709 14815 ft 322 kts
2026-05-07 18:19 44.93531 -122.67483 14623 ft 316 kts
2026-05-07 18:20 44.95704 -122.67264 14427 ft 310 kts 360°
2026-05-07 18:20 44.97849 -122.67047 14266 ft 310 kts
2026-05-07 18:20 45.00005 -122.66830 13834 ft 311 kts
2026-05-07 18:20 45.02158 -122.66612 13470 ft 311 kts
2026-05-07 18:21 45.04302 -122.66398 13176 ft 307 kts
2026-05-07 18:21 45.06423 -122.66183 12783 ft 303 kts
2026-05-07 18:21 45.08547 -122.65966 12211 ft 300 kts
2026-05-07 18:21 45.10591 -122.65756 11791 ft 297 kts
2026-05-07 18:22 45.12659 -122.65546 11390 ft 298 kts
2026-05-07 18:22 45.14057 -122.65402 11128 ft 299 kts
2026-05-07 18:22 45.16823 -122.65117 10650 ft 297 kts
2026-05-07 18:22 45.18885 -122.64910 10320 ft 295 kts
2026-05-07 18:23 45.20939 -122.64702 9911 ft 295 kts
2026-05-07 18:23 45.22973 -122.64494 9574 ft 292 kts
2026-05-07 18:23 45.24968 -122.63932 9184 ft 295 kts 17°
2026-05-07 18:23 45.26798 -122.62626 8776 ft 294 kts 30°
2026-05-07 18:24 45.28518 -122.61077 8132 ft 291 kts 30°
2026-05-07 18:24 45.30211 -122.59553 7617 ft 285 kts 30°
2026-05-07 18:24 45.31876 -122.58054 7170 ft 282 kts 30°
2026-05-07 18:24 45.33526 -122.56570 6741 ft 280 kts 30°
2026-05-07 18:25 45.35179 -122.55083 6285 ft 282 kts 30°
2026-05-07 18:25 45.36805 -122.53617 6112 ft 271 kts 31°
2026-05-07 18:25 45.38360 -122.52220 5965 ft 260 kts 30°
2026-05-07 18:25 45.39872 -122.50862 5711 ft 253 kts 31°
2026-05-07 18:26 45.41349 -122.49529 5591 ft 251 kts 31°
2026-05-07 18:26 45.42712 -122.48001 5462 ft 247 kts 51°
2026-05-07 18:26 45.43442 -122.45867 5336 ft 237 kts 78°
2026-05-07 18:26 45.43403 -122.43596 5208 ft 226 kts 107°
2026-05-07 18:27 45.42751 -122.41622 5114 ft 216 kts 120°
2026-05-07 18:27 45.42093 -122.39772 5037 ft 205 kts 107°
2026-05-07 18:27 45.41972 -122.37772 4744 ft 205 kts 79°
2026-05-07 18:27 45.42566 -122.35927 4256 ft 209 kts 48°
2026-05-07 18:28 45.43724 -122.34769 3984 ft 201 kts 19°
2026-05-07 18:28 45.45064 -122.34532 3797 ft 191 kts 351°
2026-05-07 18:28 45.46270 -122.35155 3628 ft 180 kts 324°
2026-05-07 18:28 45.47269 -122.36166 3480 ft 173 kts 322°
2026-05-07 18:29 45.48229 -122.37132 3316 ft 166 kts 322°
2026-05-07 18:29 45.49145 -122.38054 3187 ft 157 kts 322°
2026-05-07 18:29 45.50025 -122.38940 3048 ft 154 kts 322°
2026-05-07 18:29 45.50745 -122.40018 2947 ft 149 kts 300°
2026-05-07 18:30 45.51297 -122.41270 2788 ft 148 kts 300°
2026-05-07 18:30 45.51815 -122.42515 2609 ft 145 kts 298°
2026-05-07 18:30 45.52312 -122.43750 2418 ft 143 kts 298°
2026-05-07 18:30 45.52809 -122.45000 2216 ft 143 kts 298°
2026-05-07 18:31 45.53288 -122.46217 2024 ft 143 kts 299°
2026-05-07 18:31 45.53779 -122.47466 1830 ft 143 kts 299°
2026-05-07 18:31 45.54265 -122.48701 1599 ft 142 kts 299°
2026-05-07 18:31 45.54748 -122.49932 1377 ft 142 kts 299°
2026-05-07 18:32 45.55228 -122.51159 1177 ft 141 kts 299°
2026-05-07 18:32 45.55701 -122.52388 1045 ft 141 kts 299°
2026-05-07 18:32 45.56182 -122.53612 840 ft 141 kts 300°
2026-05-07 18:32 45.56659 -122.54828 650 ft 140 kts 300°
2026-05-07 18:33 45.57131 -122.56032 467 ft 139 kts 300°
2026-05-07 18:33 45.57601 -122.57229 278 ft 138 kts 300°
2026-05-07 18:33 45.58066 -122.58427 104 ft 138 kts 300°
2026-05-07 18:33 45.58508 -122.59554 41 ft 115 kts 299°
2026-05-07 18:34 45.58812 -122.60339 39 ft 66 kts 299°
2026-05-07 18:34 45.58974 -122.60754 40 ft 41 kts 300°
2026-05-07 18:34 45.59108 -122.61094 38 ft 38 kts 299°
2026-05-07 18:34 45.59224 -122.61335 38 ft 24 kts 334°
2026-05-07 18:35 45.59345 -122.61248 40 ft 21 kts 84°
2026-05-07 18:35 45.59283 -122.61062 37 ft 21 kts 119°
2026-05-07 18:35 45.59209 -122.60872 40 ft 23 kts 119°
2026-05-07 18:35 45.59130 -122.60671 40 ft 24 kts 119°
2026-05-07 18:36 45.59024 -122.60500 39 ft 22 kts 135°
2026-05-07 18:36 45.58941 -122.60347 40 ft 20 kts 119°
2026-05-07 18:36 45.58950 -122.60211 40 ft 15 kts 33°
2026-05-07 18:36 45.59032 -122.60147 40 ft 14 kts 28°
2026-05-07 18:37 45.59116 -122.60075 37 ft 15 kts 38°
2026-05-07 18:37 45.59138 -122.59932 40 ft 15 kts 102°
2026-05-07 18:37 45.59092 -122.59806 40 ft 14 kts 119°
2026-05-07 18:37 45.59097 -122.59721 40 ft 6 kts 51°
2026-05-07 18:38 45.59114 -122.59687 39 ft 3 kts 57°
2026-05-07 18:38 45.59121 -122.59671 40 ft 1 kts 58°
2026-05-07 18:38 45.59122 -122.59669 40 ft 0 kts 58°